CDT,Max TemperatureF,Mean TemperatureF,Min TemperatureF,Max Dew PointF,MeanDew PointF,Min DewpointF,Max Humidity, Mean Humidity, Min Humidity, Max Sea Level PressureIn, Mean Sea Level PressureIn, Min Sea Level PressureIn, Max VisibilityMiles, Mean VisibilityMiles, Min VisibilityMiles, Max Wind SpeedMPH, Mean Wind SpeedMPH, Max Gust SpeedMPH,PrecipitationIn, CloudCover, Events, WindDirDegrees
2013-10-1,84,74,63,68,64,61,100,74,47,30.00,29.95,29.90,10,8,3,15,8,19,0.00,4,,184
2013-10-2,87,76,64,69,66,62,100,76,51,30.06,30.00,29.93,10,6,0,15,7,21,0.00,5,Fog,158
2013-10-3,85,76,67,69,67,65,93,76,58,29.95,29.89,29.81,10,10,10,17,11,23,T,2,,178
2013-10-4,87,78,68,69,67,65,97,74,51,29.94,29.89,29.84,10,10,8,21,12,24,0.00,2,,154
2013-10-5,74,60,45,68,56,45,93,88,83,29.98,29.93,29.86,10,9,1,31,9,44,0.52,5,Rain,257
2013-10-6,56,49,41,47,41,38,100,78,55,29.95,29.89,29.86,10,10,10,24,12,31,T,6,Rain,255
2013-10-7,70,59,48,46,45,43,86,62,37,30.14,30.07,29.96,10,10,8,15,6,19,0.00,3,,269
2013-10-8,77,62,47,51,47,45,93,64,35,30.18,30.13,30.09,10,10,10,16,8,23,0.00,0,,156
2013-10-9,74,61,47,49,46,44,86,61,35,30.17,30.11,30.07,10,10,10,12,6,18,0.00,0,,135
2013-10-10,78,65,51,56,53,50,100,72,43,30.13,30.05,29.97,10,10,10,15,8,18,0.00,0,,149
2013-10-11,80,68,55,61,58,54,100,76,51,29.99,29.92,29.85,10,9,5,20,12,26,0.00,3,,154
2013-10-12,74,62,49,59,50,38,90,60,29,30.23,30.05,29.90,10,10,8,16,8,23,0.06,2,Rain,320
2013-10-13,74,61,47,38,35,30,66,44,22,30.41,30.33,30.25,10,10,5,13,8,17,0.00,0,,38
2013-10-14,68,58,48,55,41,34,80,60,40,30.33,30.18,30.00,10,10,10,17,10,24,0.03,2,Rain,113
2013-10-15,63,55,47,61,54,40,100,82,64,30.03,29.94,29.89,10,7,2,17,10,21,0.38,6,Rain,225
2013-10-16,58,49,40,45,40,37,86,69,51,30.09,30.04,30.00,10,10,10,16,7,21,0.02,6,Rain,276
2013-10-17,64,54,43,47,43,40,100,70,40,30.01,29.97,29.91,10,8,0,20,8,25,0.03,3,Fog-Rain,217
2013-10-18,57,49,40,42,38,33,92,69,46,30.10,30.05,29.97,10,10,10,16,10,21,0.07,4,Rain,311
2013-10-19,58,47,35,40,36,33,92,66,40,30.06,30.01,29.95,10,10,6,21,11,27,0.01,4,Rain-Snow,245
2013-10-20,71,56,41,42,39,36,82,58,33,29.94,29.89,29.84,10,10,10,24,11,29,0.00,1,Rain,206
2013-10-21,53,45,37,41,35,31,82,63,44,30.09,30.03,29.92,10,10,10,20,9,24,0.00,1,Rain,291
2013-10-22,65,50,35,45,37,32,92,70,47,30.06,29.97,29.83,10,10,8,25,13,33,0.08,6,Rain,261
2013-10-23,47,40,32,35,31,26,92,69,45,30.17,30.12,30.05,10,10,10,16,7,19,0.00,5,,332
2013-10-24,49,41,33,35,28,23,85,61,36,30.44,30.31,30.16,10,10,10,23,11,30,0.00,3,,322
2013-10-25,55,39,22,31,25,22,88,59,29,30.52,30.40,30.19,10,10,9,15,7,20,0.00,0,,220
2013-10-26,63,50,36,41,32,26,71,52,32,30.18,30.12,30.07,10,10,10,22,10,28,0.00,1,,284
2013-10-27,60,46,31,31,27,25,85,56,27,30.15,30.08,30.00,10,10,10,12,5,19,0.00,0,,185
2013-10-28,70,52,34,42,33,26,76,50,23,30.20,30.14,30.04,10,10,10,12,5,14,0.00,0,,143
2013-10-29,60,54,48,59,52,40,100,82,63,30.19,30.10,30.01,10,7,2,17,9,22,0.39,7,Rain,132
2013-10-30,71,66,60,66,62,58,100,89,78,30.03,29.95,29.78,10,6,0,22,11,27,0.11,8,Fog-Rain-Thunderstorm,166
2013-10-31,63,53,43,61,55,42,100,93,86,29.79,29.60,29.46,10,8,2,23,10,31,1.13,7,Rain,223